| time (UTC) | temp F | wind direction | speed MPH | gust MPH | rain 1hr in | rain 24hr in | rain mn in | humidity % | barometer mb |
| 20260903030504 | 74 | 19 | 0.0 | 2.0 | 0.00 | 0.74 | 0.74 | 96 | 1018.3 |
| 20260903030003 | 74 | 16 | 0.0 | 2.0 | 0.00 | 0.74 | 0.74 | 96 | 1018.3 |
| 20260903025503 | 74 | 42 | 0.0 | 2.0 | 0.00 | 0.74 | 0.74 | 96 | 1018.2 |
| 20260903025003 | 74 | 57 | 0.0 | 2.0 | 0.00 | 0.74 | 0.74 | 96 | 1018.2 |
| 20260903024503 | 74 | 9 | 1.0 | 3.0 | 0.00 | 0.74 | 0.74 | 96 | 1018.2 |
| 20260903024003 | 74 | 39 | 1.0 | 3.0 | 0.00 | 0.74 | 0.74 | 96 | 1018.3 |
| 20260903023004 | 74 | 90 | 0.0 | 3.0 | 0.00 | 0.74 | 0.74 | 96 | 1018.4 |
| 20260903022503 | 74 | 30 | 0.0 | 2.0 | 0.00 | 0.74 | 0.74 | 96 | 1018.4 |
| 20260903022003 | 74 | 49 | 0.0 | 2.0 | 0.00 | 0.74 | 0.74 | 96 | 1018.4 |
| 20260903021503 | 74 | 103 | 0.0 | 3.0 | 0.00 | 0.74 | 0.74 | 96 | 1018.4 |
| 20260903020503 | 74 | 15 | 1.0 | 4.0 | 0.00 | 0.74 | 0.74 | 96 | 1018.1 |
| 20260903020004 | 74 | 6 | 1.0 | 4.0 | 0.00 | 0.74 | 0.74 | 96 | 1017.9 |
| 20260903015505 | 74 | 48 | 0.0 | 2.0 | 0.00 | 0.74 | 0.74 | 96 | 1018.1 |
| 20260903014503 | 74 | 89 | 1.0 | 2.0 | 0.00 | 0.74 | 0.74 | 96 | 1018.3 |
| 20260903014003 | 74 | 92 | 1.0 | 2.0 | 0.00 | 0.74 | 0.74 | 96 | 1018.3 |
| 20260903013003 | 74 | 93 | 0.0 | 2.0 | 0.00 | 0.74 | 0.74 | 96 | 1018.4 |
| 20260903012503 | 74 | 104 | 0.0 | 2.0 | 0.00 | 0.74 | 0.74 | 96 | 1018.3 |
| 20260903011503 | 74 | 109 | 0.0 | 2.0 | 0.00 | 0.74 | 0.74 | 96 | 1018.4 |
| 20260903011004 | 74 | 90 | 0.0 | 2.0 | 0.00 | 0.74 | 0.74 | 96 | 1018.5 |
| 20260903010503 | 74 | 86 | 0.0 | 2.0 | 0.00 | 0.74 | 0.74 | 96 | 1018.4 |
| 20260903010003 | 74 | 83 | 0.0 | 2.0 | 0.00 | 0.74 | 0.74 | 96 | 1018.4 |
| 20260903005003 | 74 | 82 | 0.0 | 2.0 | 0.00 | 0.74 | 0.74 | 96 | 1018.2 |
| 20260903004504 | 74 | 79 | 0.0 | 2.0 | 0.00 | 0.74 | 0.74 | 96 | 1018.2 |
| 20260903004003 | 74 | 90 | 1.0 | 4.0 | 0.00 | 0.74 | 0.74 | 96 | 1018.2 |
| 20260903003503 | 74 | 80 | 1.0 | 4.0 | 0.00 | 0.74 | 0.74 | 96 | 1018.1 |
| 20260903002503 | 74 | 87 | 1.0 | 2.0 | 0.00 | 0.74 | 0.74 | 95 | 1018.0 |
| 20260903002003 | 74 | 83 | 1.0 | 2.0 | 0.00 | 0.74 | 0.74 | 95 | 1018.1 |
| 20260903001503 | 74 | 87 | 0.0 | 2.0 | 0.00 | 0.74 | 0.74 | 95 | 1018.0 |
| 20260903000503 | 74 | 33 | 0.0 | 2.0 | 0.00 | 0.74 | 0.74 | 95 | 1018.2 |
| 20260903000003 | 74 | 69 | 1.0 | 2.0 | 0.00 | 0.74 | 0.74 | 95 | 1018.2 |
| 20260902235503 | 74 | 72 | 1.0 | 2.0 | 0.00 | 0.74 | 0.74 | 95 | 1018.0 |
| 20260902235003 | 74 | 70 | 1.0 | 3.0 | 0.00 | 0.74 | 0.74 | 95 | 1018.1 |
| 20260902234503 | 74 | 84 | 1.0 | 3.0 | 0.00 | 0.74 | 0.74 | 95 | 1018.2 |
| 20260902234003 | 74 | 80 | 1.0 | 2.0 | 0.00 | 0.74 | 0.74 | 95 | 1018.1 |
| 20260902233504 | 74 | 78 | 1.0 | 2.0 | 0.00 | 0.74 | 0.74 | 95 | 1018.1 |
| 20260902232505 | 74 | 54 | 1.0 | 2.0 | 0.00 | 0.74 | 0.74 | 95 | 1018.1 |
| 20260902231503 | 74 | 39 | 1.0 | 3.0 | 0.00 | 0.74 | 0.74 | 95 | 1018.0 |
| 20260902231003 | 74 | 13 | 1.0 | 3.0 | 0.00 | 0.74 | 0.74 | 95 | 1018.0 |
| 20260902230503 | 74 | 353 | 1.0 | 3.0 | 0.00 | 0.74 | 0.74 | 95 | 1017.9 |
| 20260902230003 | 74 | 323 | 1.0 | 2.0 | 0.00 | 0.74 | 0.74 | 95 | 1017.9 |
| 20260902225503 | 74 | 335 | 1.0 | 3.0 | 0.00 | 0.74 | 0.74 | 95 | 1017.9 |
| 20260902225003 | 74 | 338 | 1.0 | 3.0 | 0.00 | 0.74 | 0.74 | 95 | 1018.0 |
| 20260902224503 | 74 | 328 | 0.0 | 2.0 | 0.00 | 0.74 | 0.74 | 95 | 1018.1 |
| 20260902224004 | 74 | 1 | 0.0 | 3.0 | 0.00 | 0.74 | 0.74 | 95 | 1018.1 |
| 20260902223503 | 74 | 9 | 1.0 | 3.0 | 0.00 | 0.74 | 0.74 | 95 | 1018.2 |
| 20260902223003 | 74 | 34 | 1.0 | 3.0 | 0.00 | 0.74 | 0.74 | 95 | 1018.3 |
| 20260902222518 | 74 | 76 | 1.0 | 3.0 | 0.00 | 0.74 | 0.74 | 95 | 1018.3 |
| 20260902221503 | 74 | 64 | 2.0 | 5.0 | 0.00 | 0.74 | 0.74 | 95 | 1018.3 |
| 20260902221004 | 74 | 21 | 2.0 | 4.0 | 0.00 | 0.74 | 0.74 | 95 | 1018.3 |
| 20260902220503 | 74 | 357 | 1.0 | 4.0 | 0.00 | 0.74 | 0.74 | 95 | 1018.4 |
| 20260902220003 | 74 | 336 | 1.0 | 3.0 | 0.00 | 0.74 | 0.74 | 95 | 1018.3 |
| 20260902215503 | 74 | 354 | 1.0 | 5.0 | 0.00 | 0.74 | 0.74 | 95 | 1018.4 |
| 20260902214503 | 74 | 9 | 2.0 | 6.0 | 0.00 | 0.74 | 0.74 | 95 | 1018.5 |
| 20260902214003 | 74 | 359 | 2.0 | 6.0 | 0.00 | 0.74 | 0.74 | 95 | 1018.5 |
| 20260902213503 | 74 | 330 | 2.0 | 5.0 | 0.00 | 0.74 | 0.74 | 95 | 1018.4 |
| 20260902213004 | 74 | 312 | 2.0 | 5.0 | 0.00 | 0.74 | 0.74 | 95 | 1018.4 |
| 20260902212503 | 74 | 320 | 1.0 | 3.0 | 0.00 | 0.74 | 0.74 | 95 | 1018.1 |
| 20260902212003 | 74 | 4 | 1.0 | 3.0 | 0.00 | 0.74 | 0.74 | 95 | 1018.0 |
| 20260902211503 | 74 | 357 | 1.0 | 3.0 | 0.00 | 0.74 | 0.74 | 94 | 1017.9 |
| 20260902211003 | 74 | 330 | 1.0 | 7.0 | 0.00 | 0.74 | 0.74 | 95 | 1018.0 |
| 20260902210504 | 74 | 316 | 2.0 | 7.0 | 0.00 | 0.74 | 0.74 | 95 | 1018.2 |
| 20260902210003 | 74 | 317 | 2.0 | 6.0 | 0.00 | 0.74 | 0.74 | 95 | 1018.2 |
| 20260902205503 | 74 | 336 | 1.0 | 6.0 | 0.00 | 0.74 | 0.74 | 94 | 1018.2 |
| 20260902205003 | 74 | 2 | 1.0 | 5.0 | 0.00 | 0.74 | 0.74 | 95 | 1018.0 |
| 20260902204003 | 74 | 359 | 2.0 | 8.0 | 0.00 | 0.74 | 0.74 | 94 | 1018.3 |
| 20260902203503 | 74 | 358 | 2.0 | 8.0 | 0.00 | 0.74 | 0.74 | 94 | 1017.9 |
| 20260902203003 | 74 | 352 | 2.0 | 6.0 | 0.00 | 0.74 | 0.74 | 94 | 1018.4 |
| 20260902202503 | 75 | 349 | 2.0 | 6.0 | 0.00 | 0.74 | 0.74 | 94 | 1018.5 |
| 20260902202015 | 75 | 348 | 1.0 | 4.0 | 0.00 | 0.74 | 0.74 | 95 | 1018.4 |
| 20260902201503 | 75 | 355 | 1.0 | 3.0 | 0.01 | 0.74 | 0.74 | 95 | 1018.2 |
| 20260902201003 | 75 | 359 | 2.0 | 10.0 | 0.06 | 0.74 | 0.74 | 95 | 1017.6 |
| 20260902200503 | 75 | 3 | 3.0 | 10.0 | 0.13 | 0.74 | 0.74 | 96 | 1017.3 |
| 20260902200003 | 75 | 6 | 3.0 | 10.0 | 0.26 | 0.74 | 0.74 | 96 | 1016.7 |
| 20260902195503 | 74 | 4 | 3.0 | 9.0 | 0.44 | 0.74 | 0.74 | 95 | 1016.7 |
| 20260902195003 | 74 | 5 | 3.0 | 9.0 | 0.64 | 0.74 | 0.74 | 95 | 1016.6 |
| 20260902194503 | 74 | 46 | 2.0 | 9.0 | 0.66 | 0.74 | 0.74 | 95 | 1016.7 |
| 20260902194003 | 74 | 53 | 2.0 | 9.0 | 0.66 | 0.74 | 0.74 | 95 | 1017.1 |
| 20260902193003 | 74 | 53 | 4.0 | 13.0 | 0.66 | 0.74 | 0.74 | 94 | 1018.7 |
| 20260902192503 | 73 | 86 | 5.0 | 13.0 | 0.66 | 0.74 | 0.74 | 93 | 1018.0 |
| 20260902192003 | 73 | 87 | 5.0 | 11.0 | 0.66 | 0.74 | 0.74 | 92 | 1017.5 |
| 20260902191503 | 73 | 83 | 4.0 | 9.0 | 0.65 | 0.73 | 0.73 | 91 | 1017.8 |
| 20260902191003 | 74 | 80 | 4.0 | 11.0 | 0.58 | 0.66 | 0.66 | 89 | 1019.4 |
| 20260902190004 | 76 | 323 | 6.0 | 29.0 | 0.40 | 0.48 | 0.48 | 84 | 1019.9 |
| 20260902185504 | 78 | 314 | 12.0 | 29.0 | 0.22 | 0.30 | 0.30 | 81 | 1020.4 |
| 20260902185003 | 82 | 308 | 8.0 | 27.0 | 0.00 | 0.08 | 0.08 | 75 | 1021.0 |
| 20260902184503 | 84 | 338 | 2.0 | 15.0 | 0.00 | 0.08 | 0.08 | 77 | 1020.7 |
| 20260902184003 | 84 | 87 | 2.0 | 5.0 | 0.00 | 0.08 | 0.08 | 75 | 1020.1 |
| 20260902183504 | 84 | 87 | 2.0 | 9.0 | 0.00 | 0.08 | 0.08 | 75 | 1019.6 |
| 20260902183003 | 85 | 87 | 2.0 | 9.0 | 0.00 | 0.08 | 0.08 | 76 | 1019.2 |
| 20260902182503 | 85 | 89 | 2.0 | 6.0 | 0.00 | 0.08 | 0.08 | 77 | 1018.7 |
| 20260902182004 | 85 | 90 | 2.0 | 7.0 | 0.00 | 0.08 | 0.08 | 75 | 1019.1 |
| 20260902181503 | 85 | 91 | 3.0 | 8.0 | 0.00 | 0.08 | 0.08 | 75 | 1019.3 |
| 20260902181003 | 85 | 88 | 4.0 | 9.0 | 0.00 | 0.08 | 0.08 | 76 | 1019.4 |
| 20260902180504 | 85 | 84 | 3.0 | 9.0 | 0.00 | 0.08 | 0.08 | 75 | 1019.5 |
| 20260902180005 | 86 | 87 | 3.0 | 7.0 | 0.00 | 0.08 | 0.08 | 76 | 1019.4 |
| 20260902175003 | 86 | 63 | 3.0 | 9.0 | 0.00 | 0.08 | 0.08 | 75 | 1019.5 |
| 20260902174503 | 85 | 76 | 3.0 | 9.0 | 0.00 | 0.08 | 0.08 | 78 | 1019.5 |
| 20260902174004 | 85 | 82 | 2.0 | 7.0 | 0.00 | 0.08 | 0.08 | 74 | 1019.6 |
| 20260902173503 | 85 | 90 | 2.0 | 6.0 | 0.00 | 0.08 | 0.08 | 77 | 1019.6 |
| 20260902173004 | 85 | 92 | 2.0 | 6.0 | 0.00 | 0.08 | 0.08 | 74 | 1019.6 |
| 20260902172503 | 86 | 82 | 2.0 | 6.0 | 0.00 | 0.08 | 0.08 | 73 | 1019.5 |
| 20260902172004 | 86 | 76 | 2.0 | 9.0 | 0.00 | 0.08 | 0.08 | 73 | 1019.5 |
| 20260902170003 | 85 | 85 | 3.0 | 9.0 | 0.00 | 0.08 | 0.08 | 73 | 1019.2 |
| 20260902165503 | 85 | 82 | 3.0 | 9.0 | 0.00 | 0.08 | 0.08 | 74 | 1019.2 |
| 20260902165004 | 85 | 84 | 3.0 | 8.0 | 0.00 | 0.08 | 0.08 | 77 | 1019.3 |
| 20260902164503 | 85 | 90 | 2.0 | 7.0 | 0.00 | 0.08 | 0.08 | 73 | 1019.3 |
| 20260902164004 | 84 | 87 | 2.0 | 7.0 | 0.00 | 0.08 | 0.08 | 74 | 1019.4 |
| 20260902163504 | 84 | 84 | 3.0 | 8.0 | 0.00 | 0.08 | 0.08 | 76 | 1019.4 |
| 20260902163003 | 84 | 85 | 3.0 | 8.0 | 0.00 | 0.08 | 0.08 | 74 | 1019.5 |
| 20260902162504 | 84 | 82 | 3.0 | 7.0 | 0.00 | 0.08 | 0.08 | 77 | 1019.6 |
| 20260902162004 | 84 | 81 | 3.0 | 7.0 | 0.00 | 0.08 | 0.08 | 74 | 1019.5 |
| 20260902161503 | 84 | 85 | 3.0 | 9.0 | 0.00 | 0.08 | 0.08 | 74 | 1019.5 |
| 20260902161004 | 84 | 86 | 4.0 | 10.0 | 0.00 | 0.08 | 0.08 | 76 | 1019.5 |
| 20260902160504 | 84 | 86 | 3.0 | 10.0 | 0.00 | 0.08 | 0.08 | 76 | 1019.4 |
| 20260902160003 | 84 | 88 | 3.0 | 8.0 | 0.00 | 0.08 | 0.08 | 77 | 1019.3 |
| 20260902155503 | 83 | 90 | 3.0 | 8.0 | 0.00 | 0.08 | 0.08 | 77 | 1019.4 |
| 20260902155003 | 83 | 88 | 2.0 | 7.0 | 0.00 | 0.08 | 0.08 | 80 | 1019.4 |
| 20260902154503 | 83 | 86 | 3.0 | 7.0 | 0.00 | 0.08 | 0.08 | 80 | 1019.5 |
| 20260902154003 | 83 | 87 | 2.0 | 7.0 | 0.00 | 0.08 | 0.08 | 78 | 1019.4 |
| 20260902153503 | 83 | 65 | 2.0 | 7.0 | 0.00 | 0.08 | 0.08 | 78 | 1019.5 |
| 20260902153004 | 83 | 73 | 2.0 | 7.0 | 0.00 | 0.08 | 0.08 | 79 | 1019.4 |
| 20260902152504 | 83 | 87 | 2.0 | 8.0 | 0.00 | 0.08 | 0.08 | 81 | 1019.5 |
| 20260902152003 | 83 | 82 | 2.0 | 8.0 | 0.00 | 0.08 | 0.08 | 80 | 1019.6 |
| 20260902151503 | 82 | 87 | 2.0 | 8.0 | 0.00 | 0.08 | 0.08 | 83 | 1019.6 |
| 20260902151003 | 82 | 87 | 3.0 | 8.0 | 0.00 | 0.08 | 0.08 | 81 | 1019.7 |
| 20260902150504 | 82 | 82 | 3.0 | 8.0 | 0.00 | 0.08 | 0.08 | 80 | 1019.7 |
| 20260902150003 | 82 | 80 | 3.0 | 8.0 | 0.00 | 0.08 | 0.08 | 82 | 1019.6 |
| 20260902145503 | 81 | 83 | 4.0 | 10.0 | 0.00 | 0.08 | 0.08 | 81 | 1019.6 |
| 20260902145003 | 81 | 86 | 4.0 | 11.0 | 0.00 | 0.08 | 0.08 | 81 | 1019.5 |
| 20260902144003 | 81 | 88 | 4.0 | 12.0 | 0.00 | 0.08 | 0.08 | 82 | 1019.3 |
| 20260902143504 | 80 | 88 | 3.0 | 11.0 | 0.00 | 0.08 | 0.08 | 83 | 1019.4 |
| 20260902143004 | 80 | 87 | 3.0 | 11.0 | 0.00 | 0.08 | 0.08 | 84 | 1019.4 |
| 20260902142003 | 79 | 85 | 2.0 | 9.0 | 0.00 | 0.08 | 0.08 | 87 | 1019.4 |
| 20260902141503 | 79 | 90 | 2.0 | 7.0 | 0.00 | 0.08 | 0.08 | 87 | 1019.5 |
| 20260902141003 | 79 | 85 | 3.0 | 8.0 | 0.00 | 0.08 | 0.08 | 87 | 1019.6 |
| 20260902140003 | 78 | 76 | 4.0 | 9.0 | 0.00 | 0.08 | 0.08 | 88 | 1019.6 |
| 20260902135503 | 78 | 78 | 3.0 | 8.0 | 0.00 | 0.08 | 0.08 | 89 | 1019.5 |
| 20260902134504 | 77 | 77 | 4.0 | 13.0 | 0.00 | 0.08 | 0.08 | 90 | 1019.6 |
| 20260902134004 | 77 | 81 | 4.0 | 13.0 | 0.00 | 0.08 | 0.08 | 91 | 1019.4 |
| 20260902133503 | 76 | 83 | 3.0 | 9.0 | 0.00 | 0.08 | 0.08 | 92 | 1019.3 |
| 20260902132503 | 75 | 80 | 3.0 | 9.0 | 0.00 | 0.08 | 0.08 | 94 | 1019.2 |
| 20260902131504 | 75 | 86 | 2.0 | 7.0 | 0.00 | 0.08 | 0.08 | 94 | 1019.0 |
| 20260902131003 | 74 | 89 | 2.0 | 5.0 | 0.00 | 0.08 | 0.08 | 94 | 1019.0 |
| 20260902130503 | 74 | 88 | 2.0 | 6.0 | 0.00 | 0.08 | 0.08 | 94 | 1019.1 |
| 20260902130004 | 74 | 90 | 2.0 | 8.0 | 0.00 | 0.08 | 0.08 | 94 | 1019.1 |
| 20260902125503 | 74 | 93 | 2.0 | 8.0 | 0.00 | 0.08 | 0.08 | 94 | 1019.2 |
| 20260902125003 | 74 | 92 | 2.0 | 8.0 | 0.00 | 0.08 | 0.08 | 94 | 1019.1 |
| 20260902124503 | 74 | 89 | 2.0 | 8.0 | 0.00 | 0.08 | 0.08 | 94 | 1019.2 |
| 20260902124003 | 74 | 87 | 2.0 | 6.0 | 0.00 | 0.08 | 0.08 | 94 | 1019.1 |
| 20260902123503 | 74 | 87 | 2.0 | 6.0 | 0.00 | 0.08 | 0.08 | 94 | 1018.9 |
| 20260902123003 | 74 | 86 | 3.0 | 6.0 | 0.00 | 0.08 | 0.08 | 95 | 1018.8 |
| 20260902122503 | 74 | 84 | 3.0 | 9.0 | 0.00 | 0.08 | 0.08 | 95 | 1018.8 |
| 20260902122005 | 74 | 85 | 2.0 | 9.0 | 0.00 | 0.08 | 0.08 | 95 | 1018.8 |
| 20260902121003 | 74 | 82 | 3.0 | 10.0 | 0.00 | 0.08 | 0.08 | 95 | 1018.8 |
| 20260902120503 | 73 | 82 | 4.0 | 10.0 | 0.00 | 0.08 | 0.08 | 95 | 1018.8 |
| 20260902120004 | 73 | 85 | 4.0 | 10.0 | 0.00 | 0.08 | 0.08 | 96 | 1018.7 |
| 20260902115004 | 73 | 84 | 3.0 | 7.0 | 0.00 | 0.08 | 0.08 | 96 | 1018.7 |
| 20260902114503 | 73 | 80 | 2.0 | 5.0 | 0.00 | 0.08 | 0.08 | 96 | 1018.7 |
| 20260902113503 | 73 | 69 | 3.0 | 6.0 | 0.00 | 0.08 | 0.08 | 96 | 1018.8 |
| 20260902113003 | 72 | 76 | 3.0 | 6.0 | 0.00 | 0.08 | 0.08 | 96 | 1018.7 |
| 20260902112504 | 72 | 78 | 2.0 | 6.0 | 0.00 | 0.08 | 0.08 | 96 | 1018.7 |
| 20260902112003 | 72 | 77 | 2.0 | 5.0 | 0.00 | 0.08 | 0.08 | 96 | 1018.6 |
| 20260902111503 | 72 | 81 | 3.0 | 9.0 | 0.00 | 0.08 | 0.08 | 96 | 1018.5 |
| 20260902111003 | 72 | 84 | 3.0 | 9.0 | 0.00 | 0.08 | 0.08 | 96 | 1018.4 |
| 20260902110503 | 72 | 84 | 2.0 | 6.0 | 0.00 | 0.08 | 0.08 | 96 | 1018.4 |
| 20260902110005 | 72 | 83 | 3.0 | 6.0 | 0.00 | 0.08 | 0.08 | 96 | 1018.4 |
| 20260902105003 | 72 | 85 | 2.0 | 3.0 | 0.00 | 0.08 | 0.08 | 96 | 1018.4 |
| 20260902104504 | 72 | 83 | 1.0 | 3.0 | 0.00 | 0.08 | 0.08 | 96 | 1018.3 |
| 20260902103503 | 72 | 42 | 1.0 | 4.0 | 0.00 | 0.08 | 0.08 | 96 | 1018.3 |
| 20260902103003 | 72 | 72 | 2.0 | 4.0 | 0.00 | 0.08 | 0.08 | 96 | 1018.3 |
| 20260902102503 | 72 | 77 | 2.0 | 4.0 | 0.00 | 0.08 | 0.08 | 96 | 1018.1 |
| 20260902102003 | 72 | 70 | 2.0 | 3.0 | 0.00 | 0.08 | 0.08 | 96 | 1018.1 |
| 20260902101003 | 72 | 63 | 2.0 | 5.0 | 0.00 | 0.08 | 0.08 | 95 | 1017.9 |
| 20260902100504 | 72 | 49 | 2.0 | 5.0 | 0.00 | 0.08 | 0.08 | 95 | 1017.9 |
| 20260902100003 | 72 | 59 | 2.0 | 4.0 | 0.00 | 0.08 | 0.08 | 95 | 1017.9 |
| 20260902095503 | 72 | 66 | 2.0 | 4.0 | 0.00 | 0.08 | 0.08 | 95 | 1017.7 |
| 20260902095003 | 72 | 53 | 2.0 | 5.0 | 0.00 | 0.08 | 0.08 | 95 | 1017.8 |
| 20260902094503 | 72 | 49 | 2.0 | 5.0 | 0.00 | 0.08 | 0.08 | 95 | 1017.9 |
| 20260902094003 | 72 | 65 | 2.0 | 4.0 | 0.00 | 0.08 | 0.08 | 95 | 1017.8 |
| 20260902093003 | 72 | 77 | 1.0 | 2.0 | 0.00 | 0.08 | 0.08 | 95 | 1017.8 |
| 20260902092504 | 72 | 58 | 1.0 | 4.0 | 0.00 | 0.08 | 0.08 | 95 | 1017.7 |
| 20260902092003 | 72 | 64 | 2.0 | 4.0 | 0.00 | 0.08 | 0.08 | 95 | 1017.6 |
| 20260902091503 | 72 | 64 | 1.0 | 4.0 | 0.00 | 0.08 | 0.08 | 95 | 1017.6 |
| 20260902091003 | 72 | 343 | 1.0 | 3.0 | 0.00 | 0.08 | 0.08 | 95 | 1017.5 |
| 20260902090503 | 72 | 23 | 1.0 | 3.0 | 0.00 | 0.08 | 0.08 | 95 | 1017.5 |
| 20260902085503 | 72 | 29 | 2.0 | 4.0 | 0.00 | 0.08 | 0.08 | 96 | 1017.4 |
| 20260902085003 | 72 | 8 | 1.0 | 4.0 | 0.00 | 0.08 | 0.08 | 95 | 1017.4 |
| 20260902084003 | 72 | 326 | 1.0 | 3.0 | 0.00 | 0.08 | 0.08 | 95 | 1017.3 |
| 20260902083503 | 72 | 320 | 1.0 | 3.0 | 0.00 | 0.08 | 0.08 | 95 | 1017.3 |
| 20260902083003 | 73 | 317 | 1.0 | 3.0 | 0.00 | 0.08 | 0.08 | 95 | 1017.3 |
| 20260902082503 | 73 | 316 | 1.0 | 3.0 | 0.00 | 0.08 | 0.08 | 95 | 1017.3 |
| 20260902082003 | 73 | 324 | 1.0 | 3.0 | 0.00 | 0.08 | 0.08 | 95 | 1017.2 |
| 20260902081503 | 73 | 342 | 1.0 | 3.0 | 0.00 | 0.08 | 0.08 | 95 | 1017.1 |
| 20260902081003 | 73 | 325 | 1.0 | 2.0 | 0.00 | 0.08 | 0.08 | 95 | 1017.0 |
| 20260902080504 | 73 | 310 | 1.0 | 2.0 | 0.00 | 0.08 | 0.08 | 95 | 1017.0 |
| 20260902080003 | 72 | 326 | 0.0 | 2.0 | 0.00 | 0.08 | 0.08 | 95 | 1017.0 |
| 20260902075504 | 73 | 318 | 1.0 | 3.0 | 0.00 | 0.08 | 0.08 | 95 | 1017.0 |
| 20260902075004 | 72 | 315 | 1.0 | 3.0 | 0.00 | 0.08 | 0.08 | 95 | 1017.1 |
| 20260902074503 | 73 | 351 | 0.0 | 2.0 | 0.00 | 0.08 | 0.08 | 95 | 1017.1 |
| 20260902074003 | 72 | 1 | 0.0 | 2.0 | 0.00 | 0.08 | 0.08 | 95 | 1017.0 |
| 20260902073503 | 72 | 3 | 0.0 | 3.0 | 0.00 | 0.08 | 0.08 | 95 | 1017.0 |
| 20260902072503 | 72 | 5 | 1.0 | 3.0 | 0.00 | 0.08 | 0.08 | 95 | 1017.0 |
| 20260902072003 | 72 | 16 | 0.0 | 2.0 | 0.00 | 0.08 | 0.08 | 95 | 1017.0 |
| 20260902071003 | 72 | 50 | 0.0 | 2.0 | 0.00 | 0.08 | 0.08 | 95 | 1017.1 |
| 20260902070503 | 72 | 85 | 0.0 | 2.0 | 0.00 | 0.08 | 0.08 | 94 | 1017.0 |
| 20260902070003 | 72 | 19 | 0.0 | 2.0 | 0.00 | 0.08 | 0.08 | 95 | 1017.1 |
| 20260902065503 | 72 | 15 | 1.0 | 3.0 | 0.00 | 0.08 | 0.08 | 94 | 1017.0 |
| 20260902065003 | 72 | 77 | 2.0 | 4.0 | 0.00 | 0.08 | 0.08 | 94 | 1016.9 |
| 20260902064504 | 72 | 86 | 4.0 | 4.0 | 0.00 | 0.08 | 0.08 | 94 | 1016.9 |
| 20260902064003 | 72 | 86 | 4.0 | 4.0 | 0.00 | 0.08 | 0.08 | 94 | 1016.9 |
| 20260902063503 | 72 | 86 | 4.0 | 4.0 | 0.00 | 0.08 | 0.08 | 94 | 1016.9 |
| 20260902063004 | 72 | 86 | 4.0 | 4.0 | 0.00 | 0.08 | 0.08 | 94 | 1016.9 |
| 20260902062504 | 73 | 86 | 4.0 | 4.0 | 0.00 | 0.08 | 0.08 | 94 | 1017.0 |
| 20260902062003 | 73 | 86 | 4.0 | 4.0 | 0.00 | 0.08 | 0.08 | 94 | 1017.0 |
| 20260902061503 | 73 | 86 | 4.0 | 4.0 | 0.00 | 0.08 | 0.08 | 94 | 1017.0 |
| 20260902061003 | 73 | 86 | 4.0 | 4.0 | 0.00 | 0.08 | 0.08 | 94 | 1017.1 |
| 20260902060004 | 73 | 86 | 4.0 | 4.0 | 0.00 | 0.08 | 0.08 | 94 | 1017.2 |
| 20260902054503 | 73 | 86 | 4.0 | 4.0 | 0.08 | 0.08 | 0.08 | 93 | 1017.3 |
| 20260902054004 | 73 | 86 | 4.0 | 4.0 | 0.08 | 0.08 | 0.08 | 93 | 1017.2 |
| 20260902053503 | 73 | 86 | 4.0 | 4.0 | 0.08 | 0.08 | 0.08 | 93 | 1017.2 |
| 20260902053003 | 73 | 86 | 4.0 | 4.0 | 0.08 | 0.08 | 0.08 | 93 | 1017.2 |
| 20260902052504 | 73 | 86 | 4.0 | 4.0 | 0.08 | 0.08 | 0.08 | 93 | 1017.3 |
| 20260902052003 | 73 | 86 | 4.0 | 4.0 | 0.08 | 0.08 | 0.08 | 93 | 1017.4 |
| 20260902051003 | 74 | 86 | 4.0 | 4.0 | 0.08 | 0.08 | 0.08 | 92 | 1017.5 |
| 20260902050504 | 74 | 87 | 4.0 | 5.0 | 0.08 | 0.08 | 0.08 | 92 | 1017.7 |
| 20260902050005 | 74 | 88 | 4.0 | 10.0 | 0.08 | 0.08 | 0.08 | 91 | 1017.8 |
| 20260902044506 | 75 | 80 | 3.0 | 14.0 | 0.00 | 0.00 | 0.00 | 87 | 1017.7 |
| 20260902044003 | 75 | 25 | 1.0 | 4.0 | 0.00 | 0.00 | 0.00 | 86 | 1016.7 |
| 20260902043503 | 75 | 5 | 1.0 | 4.0 | 0.00 | 0.00 | 0.00 | 86 | 1016.5 |
| 20260902043003 | 75 | 26 | 0.0 | 2.0 | 0.00 | 0.00 | 0.00 | 86 | 1016.5 |
| 20260902042503 | 75 | 8 | 0.0 | 2.0 | 0.00 | 0.00 | 0.00 | 86 | 1016.6 |
| 20260902042003 | 75 | 3 | 1.0 | 3.0 | 0.00 | 0.00 | 0.00 | 85 | 1016.6 |
| 20260902041003 | 75 | 356 | 0.0 | 2.0 | 0.00 | 0.00 | 0.00 | 86 | 1016.9 |
| 20260902040503 | 75 | 6 | 1.0 | 3.0 | 0.00 | 0.00 | 0.00 | 86 | 1016.7 |
| 20260902040004 | 75 | 3 | 1.0 | 3.0 | 0.00 | 0.00 | 0.00 | 85 | 1016.6 |
| 20260902035504 | 75 | 7 | 1.0 | 3.0 | 0.00 | 0.00 | 0.00 | 85 | 1016.5 |
| 20260902035003 | 76 | 45 | 1.0 | 3.0 | 0.00 | 0.00 | 0.00 | 84 | 1016.6 |
| 20260902034503 | 76 | 58 | 1.0 | 5.0 | 0.00 | 0.00 | 0.00 | 84 | 1017.0 |
| 20260902034003 | 76 | 79 | 2.0 | 6.0 | 0.00 | 0.00 | 0.00 | 83 | 1017.0 |
| 20260902033503 | 76 | 90 | 2.0 | 9.0 | 0.00 | 0.00 | 0.00 | 83 | 1017.0 |
| 20260902033004 | 77 | 89 | 3.0 | 9.0 | 0.00 | 0.00 | 0.00 | 82 | 1017.0 |
| 20260902032503 | 77 | 88 | 3.0 | 9.0 | 0.00 | 0.00 | 0.00 | 81 | 1017.0 |
| 20260902032003 | 78 | 82 | 5.0 | 12.0 | 0.00 | 0.00 | 0.00 | 80 | 1017.1 |
| 20260902031003 | 79 | 76 | 7.0 | 21.0 | 0.00 | 0.00 | 0.00 | 76 | 1017.2 |